Location: Lake Arresoe
(56.0000°N, 12.5000°E)
Time: 13:45:36
(UTC+02:00)

Cosmos 2058 - Pass Details

Date: 27 July 2021
Orbit: 560 x 584 km, 82.5° (Epoch: 22 September)

Event Time Altitude Azimuth Distance (km) Brightness Sun altitude
Rises 23:14:26 0° 241° (WSW) 2,796 6.4 -10.7°
Reaches altitude 10° 23:17:20 10° 262° (W) 1,905 5.8 -10.9°
Maximum altitude 23:20:01 16° 302° (WNW) 1,541 6.0 -11.1°
Drops below altitude 10° 23:22:44 10° 342° (NNW) 1,919 7.1 -11.2°
Sets 23:25:41 0° 4° (N) 2,826 7.6 -11.4°
